Location: ??????
(56.0120°N, 39.1740°E)
Time: 09:37:59
(UTC+00:00)

USA 229 DEB - Pass Details

Date: 14 April 2026
Orbit: 844 x 1364 km, 63.4° (Epoch: 10 January)

Event Time Altitude Azimuth Distance (km) Brightness Sun altitude
Rises 23:41:50 0° 310° (NW) 3,956 6.7 -18.3°
Reaches altitude 10° 23:44:34 10° 303° (WNW) 3,069 6.1 -18.1°
Maximum altitude 23:51:22 40° 238° (WSW) 1,766 4.4 -17.5°
Drops below altitude 10° 23:58:47 10° 173° (S) 3,352 5.9 -16.8°
Sets 00:01:55 0° 166° (SSE) 4,357 6.6 -16.5°
